[[{"header":{"parameterUnit":"m.s-1","parameterCategory":1,"la1":30.2991,"la2":30.254,"lo1":-89.0895,"lo2":-89.0444,"dy":0.0017,"dx":0.0017,"nx":28,"ny":28,"refTime":"2023-10-16T21:00:00:Z","depth":0,"parameterNumber":2,"parameterNumberName":"U-component_of_WINDS"},"data":[0,0,0,0,0,0,0,0,0,0,0,0,0,0,0,0,0,0,0,0,0,0,0,0,0,0,0,0,0,0,0,0,0,0,0,0,0,0,0,0,0,0,0,0,0,0,0,0,0,0,0,0,0,0,0,0,0,0,1.6322,1.6321,0,1.6249,1.6248,1.6247,1.6201,1.62,1.62,1.62,1.6121,1.612,1.6118,0,0,0,0,0,0,0,0,0,0,0,0,0,1.6419,1.6417,1.6322,1.6321,1.632,1.6249,1.6248,1.6247,1.6201,1.62,1.62,1.62,1.6122,1.612,1.6118,0,0,0,0,0,0,0,0,0,0,0,0,0,1.6364,1.6417,1.6322,1.6289,1.6285,1.6249,1.6248,1.6247,1.6201,1.62,1.62,1.62,1.6123,1.612,1.6117,1.6108,0,0,1.6109,1.6108,0,0,0,0,0,0,0,0,1.6367,1.6361,1.6295,1.6291,1.6287,1.6234,1.6253,1.62,1.6201,1.6233,1.62,1.6199,1.6159,1.6153,1.614,1.6105,1.6101,1.6109,1.6107,1.6106,1.6105,0,0,0,0,0,0,0,1.6371,1.6364,1.6293,1.6294,1.6289,1.6276,1.6268,1.6243,1.6199,1.623,1.6226,1.6218,1.6157,1.6143,1.6138,1.61,1.6109,1.6106,1.6105,1.6104,1.6053,1.6053,0,0,0,0,0,0,1.6381,1.6367,1.6295,1.6291,1.6327,1.6275,1.6266,1.6251,1.6199,1.6191,1.6219,1.6217,1.6148,1.6141,1.6135,1.612,1.6106,1.6103,1.6102,1.6052,1.6053,1.6053,0,0,0,0,0,0,1.6383,1.6375,1.6298,1.6328,1.6317,1.6274,1.6257,1.625,1.6236,1.6191,1.6182,1.6213,1.6147,1.6139,1.6115,1.6117,1.6102,1.61,1.6052,1.6052,1.6053,1.6091,0,0,0,0,0,0,1.6386,1.6376,1.6373,1.6328,1.6316,1.6281,1.6258,1.6249,1.6232,1.6228,1.6183,1.6175,1.6146,1.612,1.6113,1.6113,1.6097,1.6052,1.6052,1.6053,1.6089,1.6093,1.6095,0,0,0,0,0,1.639,1.6386,1.6373,1.6365,1.6311,1.6281,1.6274,1.6242,1.6232,1.6228,1.6199,1.6177,1.6118,1.6118,1.6109,1.6109,1.6051,1.6052,1.6053,1.6088,1.6092,1.6095,0,0,0,0,0,0,1.6431,1.6379,1.6364,1.6347,1.6319,1.6274,1.6267,1.6247,1.6221,1.6218,1.6178,1.6168,1.6149,1.6126,1.6127,1.6097,1.6082,1.6081,1.6112,1.6115,1.6118,1.6123,1.6095,0,0,0,0,0,1.6438,1.6419,1.6375,1.6363,1.635,1.6311,1.6297,1.6275,1.6244,1.6231,1.62,1.617,1.6145,1.6129,1.6103,1.6086,1.6075,1.6082,1.6085,1.6088,1.6087,1.6075,1.6077,1.6055,1.6055,1.6055,0,0,1.6452,1.6422,1.6412,1.6371,1.6346,1.6326,1.6302,1.6282,1.6266,1.6228,1.6204,1.618,1.6144,1.6123,1.6113,1.6104,1.609,1.6088,1.6091,1.6088,1.6076,1.6078,1.608,1.6056,1.6056,1.6055,0,0,1.6467,1.6443,1.643,1.6407,1.6371,1.6345,1.6342,1.63,1.6283,1.6259,1.623,1.621,1.6168,1.6143,1.6124,1.6131,1.6109,1.6124,1.6139,1.6128,1.613,1.6131,1.6132,1.6133,1.6123,1.6123,1.6123,0,1.6489,1.6459,1.6426,1.6408,1.639,1.6356,1.6342,1.632,1.6278,1.6266,1.6257,1.6203,1.6176,1.6149,1.615,1.6137,1.6131,1.6128,1.6132,1.6133,1.6134,1.6134,1.6135,1.6125,1.6125,1.6125,1.6125,0,1.6486,1.6466,1.646,1.642,1.6402,1.6386,1.635,1.6335,1.6314,1.6289,1.6264,1.6231,1.6198,1.619,1.6169,1.6159,1.6155,1.614,1.6124,1.6138,1.6138,1.6138,1.6128,1.6127,1.6127,1.6126,0,0,1.6524,1.6468,1.6466,1.6447,1.6405,1.6388,1.637,1.6339,1.6326,1.6298,1.6281,1.6246,1.6232,1.6211,1.6187,1.6178,1.6184,1.6164,1.6162,1.6168,1.6169,1.618,1.6181,1.617,1.617,1.617,1.6172,0,1.6532,1.65,1.647,1.6447,1.6427,1.6395,1.6379,1.6351,1.6327,1.6306,1.6279,1.6254,1.6238,1.6225,1.6215,1.6185,1.6183,1.6185,1.6152,1.6151,1.6161,1.6181,1.6192,1.6196,1.6172,1.6172,1.6172,0,1.6537,1.6511,1.6487,1.6447,1.6437,1.6423,1.6392,1.6372,1.6339,1.6323,1.63,1.6275,1.6254,1.6242,1.621,1.6212,1.6197,1.6181,1.618,1.6174,1.6161,1.6174,1.6196,1.6196,1.6171,1.6171,1.6171,0,1.6566,1.6525,1.6504,1.649,1.6443,1.6434,1.6413,1.638,1.6363,1.6335,1.6323,1.6293,1.6276,1.6253,1.622,1.6215,1.6192,1.6177,1.6176,1.6177,1.6172,1.6172,1.619,1.6165,1.6165,1.6165,1.6165,0,1.6577,1.6563,1.6517,1.6504,1.6487,1.6453,1.6437,1.6413,1.6384,1.6366,1.6336,1.6319,1.6278,1.6256,1.623,1.6208,1.62,1.6185,1.6178,1.6187,1.6189,1.6175,1.6174,1.6165,1.6165,1.6165,1.6165,0,1.6605,1.6574,1.655,1.6507,1.6496,1.6486,1.6449,1.6435,1.641,1.6387,1.6379,1.6339,1.6312,1.6277,1.6239,1.6221,1.6201,1.6191,1.6212,1.6208,1.6208,1.6208,1.6217,1.6216,1.6193,1.6193,1.6193,0,1.6613,1.6602,1.6559,1.6545,1.6526,1.6504,1.6486,1.6452,1.6435,1.6397,1.6387,1.6357,1.6332,1.6289,1.6256,1.6226,1.6214,1.6219,1.6209,1.6218,1.6212,1.6213,1.6211,1.6221,1.6222,1.6222,1.6222,0,1.6631,1.6617,1.6593,1.6564,1.6544,1.652,1.6494,1.6484,1.6444,1.6426,1.6398,1.6378,1.6339,1.6309,1.6275,1.6252,1.623,1.6226,1.6224,1.6232,1.6244,1.6236,1.6218,1.6226,1.6225,1.6225,1.6225,1.6225,1.6649,1.6637,1.6605,1.6579,1.6556,1.6533,1.6517,1.6491,1.6467,1.6433,1.6414,1.6387,1.6353,1.6305,1.6284,1.6261,1.6253,1.625,1.6249,1.6249,1.6251,1.6249,1.6255,1.6255,1.6254,1.6254,1.6254,0,1.6664,1.6642,1.6619,1.6584,1.6564,1.6547,1.6517,1.65,1.6477,1.6448,1.6424,1.6391,1.6362,1.6328,1.6296,1.6284,1.6273,1.6277,1.6277,1.6272,1.626,1.6265,1.6286,1.6286,1.6286,1.6286,1.6286,1.6286,1.667,1.6648,1.663,1.6596,1.6574,1.6547,1.6531,1.6509,1.6486,1.6451,1.6428,1.6406,1.6374,1.634,1.6313,1.6303,1.6292,1.6299,1.6286,1.6276,1.6273,1.627,1.6274,1.6297,1.6297,1.6299,1.6299,1.6299]},{"header":{"parameterUnit":"m.s-1","parameterCategory":1,"la1":30.2991,"la2":30.254,"lo1":-89.0895,"lo2":-89.0444,"dy":0.0017,"dx":0.0017,"nx":28,"ny":28,"refTime":"2023-10-16T21:00:00:Z","depth":0,"parameterNumber":3,"parameterNumberName":"V-component_of_WINDS"},"data":[0,0,0,0,0,0,0,0,0,0,0,0,0,0,0,0,0,0,0,0,0,0,0,0,0,0,0,0,0,0,0,0,0,0,0,0,0,0,0,0,0,0,0,0,0,0,0,0,0,0,0,0,0,0,0,0,0,0,-4.7098,-4.71,0,-4.7298,-4.73,-4.7302,-4.7237,-4.7233,-4.7229,-4.7224,-4.7427,-4.7436,-4.7445,0,0,0,0,0,0,0,0,0,0,0,0,0,-4.6658,-4.6667,-4.7098,-4.71,-4.7103,-4.7298,-4.73,-4.7303,-4.7238,-4.7233,-4.7227,-4.7223,-4.7424,-4.7435,-4.7446,0,0,0,0,0,0,0,0,0,0,0,0,0,-4.6853,-4.6669,-4.7097,-4.7094,-4.7096,-4.7297,-4.73,-4.7304,-4.7239,-4.7233,-4.7226,-4.722,-4.742,-4.7434,-4.7448,-4.7664,0,0,-4.7491,-4.7497,0,0,0,0,0,0,0,0,-4.6842,-4.6869,-4.7092,-4.7095,-4.7097,-4.7236,-4.7219,-4.7424,-4.7241,-4.7185,-4.7224,-4.7217,-4.7368,-4.7386,-4.7438,-4.7673,-4.7682,-4.7492,-4.75,-4.7506,-4.751,0,0,0,0,0,0,0,-4.6828,-4.686,-4.7177,-4.7095,-4.7098,-4.7082,-4.7102,-4.7258,-4.731,-4.7189,-4.7185,-4.7209,-4.7368,-4.7424,-4.7442,-4.7685,-4.7491,-4.7504,-4.7513,-4.7518,-4.8109,-4.8116,0,0,0,0,0,0,-4.6814,-4.6849,-4.7171,-4.7183,-4.6951,-4.7095,-4.7118,-4.7198,-4.7308,-4.7319,-4.7215,-4.7206,-4.7404,-4.7426,-4.7449,-4.7711,-4.7506,-4.752,-4.7528,-4.8102,-4.8111,-4.8119,0,0,0,0,0,0,-4.6805,-4.6843,-4.7162,-4.7015,-4.7054,-4.711,-4.72,-4.7205,-4.7261,-4.7328,-4.7336,-4.7263,-4.7399,-4.7429,-4.7611,-4.7717,-4.7526,-4.7539,-4.8094,-4.8105,-4.8115,-4.8236,0,0,0,0,0,0,-4.6792,-4.684,-4.6923,-4.7017,-4.7063,-4.7323,-4.7206,-4.7214,-4.7286,-4.7276,-4.7375,-4.7385,-4.7397,-4.7591,-4.7626,-4.7733,-4.755,-4.8084,-4.8099,-4.8111,-4.8223,-4.825,-4.8273,0,0,0,0,0,-4.6777,-4.6948,-4.6928,-4.6967,-4.7168,-4.7329,-4.7355,-4.7365,-4.7295,-4.7379,-4.7422,-4.7382,-4.77,-4.761,-4.7649,-4.7762,-4.8078,-4.8095,-4.811,-4.8212,-4.8245,-4.8272,0,0,0,0,0,0,-4.6864,-4.6961,-4.6939,-4.7146,-4.723,-4.7317,-4.7424,-4.7399,-4.7504,-4.749,-4.7497,-4.752,-4.7708,-4.7753,-4.7651,-4.7978,-4.7878,-4.7903,-4.7942,-4.7974,-4.7998,-4.7984,-4.7561,0,0,0,0,0,-4.6908,-4.7031,-4.7108,-4.7284,-4.7327,-4.7368,-4.7439,-4.744,-4.7526,-4.7561,-4.7617,-4.7702,-4.7821,-4.79,-4.8013,-4.8228,-4.825,-4.8325,-4.835,-4.837,-4.8392,-4.8511,-4.8547,-4.8172,-4.8172,-4.8172,0,0,-4.6998,-4.7066,-4.7144,-4.7303,-4.7368,-4.7496,-4.7399,-4.7537,-4.7632,-4.7582,-4.7759,-4.7803,-4.7898,-4.8099,-4.819,-4.8142,-4.85,-4.8391,-4.8407,-4.8418,-4.8532,-4.8567,-4.8599,-4.8183,-4.8181,-4.818,0,0,-4.723,-4.7293,-4.7447,-4.7515,-4.7615,-4.7642,-4.7679,-4.7771,-4.7799,-4.7976,-4.7942,-4.8054,-4.8258,-4.8328,-4.8391,-4.865,-4.8618,-4.8686,-4.8817,-4.8933,-4.8963,-4.8989,-4.9083,-4.9117,-4.8707,-4.8708,-4.8708,0,-4.733,-4.7522,-4.7529,-4.7672,-4.7744,-4.7705,-4.7862,-4.7926,-4.8058,-4.8108,-4.8053,-4.831,-4.8371,-4.8589,-4.8652,-4.8703,-4.8746,-4.8676,-4.8958,-4.8984,-4.9009,-4.9099,-4.9134,-4.8716,-4.8715,-4.8714,-4.8713,0,-4.7641,-4.7774,-4.7887,-4.8017,-4.81,-4.8249,-4.8279,-4.8363,-4.8357,-4.839,-4.8571,-4.8643,-4.8771,-4.8822,-4.8817,-4.904,-4.9007,-4.8955,-4.8855,-4.9052,-4.9137,-4.9172,-4.8727,-4.8724,-4.8722,-4.872,0,0,-4.7933,-4.8067,-4.8108,-4.8167,-4.8275,-4.8378,-4.8525,-4.8652,-4.8724,-4.8816,-4.894,-4.9115,-4.9068,-4.9139,-4.914,-4.9242,-4.9445,-4.9177,-4.918,-4.9226,-4.9698,-4.9738,-4.9778,-4.9424,-4.9431,-4.9436,-4.969,0,-4.8175,-4.8435,-4.8447,-4.8683,-4.8807,-4.8773,-4.8901,-4.8981,-4.9016,-4.9125,-4.9162,-4.9287,-4.9214,-4.9257,-4.9356,-4.94,-4.954,-4.9381,-4.954,-4.9546,-4.952,-4.9822,-4.9865,-5.0101,-4.9723,-4.9729,-4.9733,0,-4.8492,-4.8596,-4.8846,-4.8938,-4.899,-4.9105,-4.9223,-4.9328,-4.9418,-4.9436,-4.9516,-4.9504,-4.9654,-4.9549,-4.9757,-4.9648,-4.9714,-4.9745,-4.9754,-4.9771,-4.9653,-4.9848,-5.0177,-5.0213,-4.9785,-4.9781,-4.9777,0,-4.8683,-4.8885,-4.9061,-4.9112,-4.9223,-4.9306,-4.9356,-4.9439,-4.9515,-4.9617,-4.9667,-4.9785,-4.985,-4.9941,-4.9961,-4.9882,-5.017,-5.0065,-5.019,-5.019,-5.0253,-5.025,-5.0599,-5.0293,-5.0292,-5.0291,-5.029,0,-4.8954,-4.9108,-4.9149,-4.9257,-4.9429,-4.9441,-4.9611,-4.9655,-4.973,-4.9846,-4.9822,-4.9932,-4.995,-5.0064,-5.008,-5.0251,-5.028,-5.0299,-5.0302,-5.0303,-5.0301,-5.0347,-5.0332,-5.0301,-5.0299,-5.0297,-5.0295,0,-4.9197,-4.923,-4.942,-4.951,-4.9536,-4.9659,-4.9736,-4.984,-4.9871,-5.0019,-5.0054,-5.0104,-5.0237,-5.0265,-5.0422,-5.0433,-5.0637,-5.0622,-5.0607,-5.0607,-5.073,-5.0719,-5.1123,-5.1178,-5.0834,-5.0837,-5.084,0,-4.9368,-4.9486,-4.959,-4.9666,-4.9721,-4.9844,-4.9922,-4.9938,-5.002,-5.0132,-5.0223,-5.0353,-5.0459,-5.0672,-5.0722,-5.0842,-5.0832,-5.0965,-5.085,-5.0847,-5.0836,-5.083,-5.0843,-5.0988,-5.0991,-5.0994,-5.0997,0,-4.9669,-4.968,-4.9793,-4.9914,-5.0007,-5.0102,-5.0192,-5.0256,-5.0284,-5.0378,-5.0514,-5.0596,-5.0757,-5.0887,-5.1008,-5.1058,-5.1034,-5.1033,-5.1068,-5.1071,-5.1059,-5.107,-5.067,-5.1024,-5.1021,-5.1019,-5.1018,-5.1017,-4.9883,-4.9987,-5.0077,-5.0205,-5.0274,-5.036,-5.0463,-5.0508,-5.0622,-5.0756,-5.0757,-5.0907,-5.0994,-5.1154,-5.1212,-5.1329,-5.1288,-5.1338,-5.1352,-5.1365,-5.1377,-5.1039,-5.1351,-5.135,-5.1349,-5.1349,-5.1348,0,-5.0185,-5.0241,-5.0358,-5.0486,-5.0587,-5.0555,-5.0653,-5.074,-5.0872,-5.0956,-5.1061,-5.1218,-5.1345,-5.1405,-5.153,-5.1612,-5.1604,-5.1644,-5.1639,-5.1652,-5.1406,-5.1364,-5.1649,-5.1649,-5.1649,-5.1649,-5.1649,-5.1649,-5.0354,-5.053,-5.0551,-5.0762,-5.0816,-5.0963,-5.1023,-5.1102,-5.1169,-5.1347,-5.1452,-5.1491,-5.1566,-5.1696,-5.1811,-5.1825,-5.1873,-5.192,-5.1929,-5.1699,-5.1669,-5.164,-5.16,-5.193,-5.1931,-5.2166,-5.2168,-5.2169]}]]